Location: Austin
(30.3000°N, 97.7500°W)
Time: 08:36:20
(UTC-06:00)

Fermi - Pass Details

Date: 13 November 2025
Orbit: 492 x 503 km, 25.6° (Epoch: 07 December)

Event Time Altitude Azimuth Distance (km) Brightness Sun altitude
Rises 18:56:32 0° 249° (WSW) 2,569 8.9 -17.7°
Reaches altitude 10° 18:58:51 10° 241° (WSW) 1,690 7.4 -18.2°
Maximum altitude 19:02:28 36° 173° (S) 794 4.6 -19.0°
Enters shadow 19:03:22 32° 142° (SE) 877 4.6 -19.2°
